This is the latest recevied weather packets stored in our database for station/object S50APT-10. If no packets are shown the sender has not sent any weather packets the latest 10 day(s).
| Time | Temp. | Humidity | Pressure | Rain* | Wind** | Luminosity | Snow |
|---|---|---|---|---|---|---|---|
| 1778144436 | 16.67° C | 64% | 1016.5 hPa | - | - | - | - |
| 1778143536 | 16.11° C | 65% | 1016.5 hPa | - | - | - | - |
| 1778142628 | 15.56° C | 67% | 1016.3 hPa | - | - | - | - |
| 1778141705 | 15° C | 67% | 1016.1 hPa | - | - | - | - |
| 1778140794 | 14.44° C | 66% | 1016 hPa | - | - | - | - |
| 1778139883 | 14.44° C | 65% | 1016.2 hPa | - | - | - | - |
| 1778139065 | 14.44° C | 67% | 1015.9 hPa | - | - | - | - |
| 1778138971 | 14.44° C | 67% | 1015.9 hPa | - | - | - | - |
| 1778138060 | 13.89° C | 66% | 1015.7 hPa | - | - | - | - |
| 1778137149 | 14.44° C | 65% | 1015.5 hPa | - | - | - | - |
| 1778136293 | 14.44° C | 65% | 1015.5 hPa | - | - | - | - |
| 1778136219 | 14.44° C | 65% | 1015.5 hPa | - | - | - | - |
| 1778135309 | 15° C | 63% | 1015.4 hPa | - | - | - | - |
| 1778133488 | 14.44° C | 64% | 1015 hPa | - | - | - | - |
| 1778132582 | 13.89° C | 66% | 1014.8 hPa | - | - | - | - |
| 1778131672 | 13.89° C | 67% | 1014.8 hPa | - | - | - | - |
| 1778130750 | 13.89° C | 66% | 1014.6 hPa | - | - | - | - |
| 1778129838 | 13.89° C | 66% | 1014.6 hPa | - | - | - | - |
| 1778128928 | 13.33° C | 68% | 1014.5 hPa | - | - | - | - |
| 1778128213 | 13.33° C | 68% | 1014.3 hPa | - | - | - | - |
| 1778128017 | 13.33° C | 68% | 1014.3 hPa | - | - | - | - |
| 1778127108 | 13.33° C | 67% | 1014.3 hPa | - | - | - | - |
| 1778126187 | 13.33° C | 68% | 1014.1 hPa | - | - | - | - |
| 1778125268 | 13.33° C | 68% | 1014 hPa | - | - | - | - |
| 1778124357 | 13.33° C | 67% | 1014.2 hPa | - | - | - | - |
* Rain since midnight (hover to see other rain measurements)
** Current wind speed in m/s (hover to see current wind gust speed)